TimeCST,TemperatureF,Dew PointF,Humidity,Sea Level PressureIn,VisibilityMPH,Wind Direction,Wind SpeedMPH,Gust SpeedMPH,PrecipitationIn,Events,Conditions,WindDirDegrees,DateUTC
12:15 AM,41.0,39.2,93,29.40,10.0,South,11.5,-,N/A,,Clear,170,2013-11-16 06:15:00
12:35 AM,39.2,37.4,93,29.40,10.0,South,9.2,-,N/A,,Clear,180,2013-11-16 06:35:00
12:55 AM,39.2,37.4,93,29.40,10.0,South,10.4,-,N/A,,Clear,180,2013-11-16 06:55:00
1:15 AM,39.2,37.4,93,29.39,10.0,South,11.5,-,N/A,,Clear,170,2013-11-16 07:15:00
1:35 AM,39.2,37.4,93,29.38,10.0,South,9.2,-,N/A,,Clear,170,2013-11-16 07:35:00
1:55 AM,37.4,37.4,100,29.38,10.0,South,9.2,-,N/A,,Clear,180,2013-11-16 07:55:00
2:15 AM,39.2,37.4,93,29.38,10.0,South,10.4,17.3,N/A,,Clear,180,2013-11-16 08:15:00
2:35 AM,39.2,37.4,93,29.38,10.0,South,11.5,17.3,N/A,,Clear,180,2013-11-16 08:35:00
2:55 AM,39.2,37.4,93,29.38,10.0,South,10.4,-,N/A,,Clear,180,2013-11-16 08:55:00
3:15 AM,37.4,37.4,100,29.38,10.0,South,9.2,-,N/A,,Clear,170,2013-11-16 09:15:00
3:35 AM,37.4,37.4,100,29.38,10.0,South,6.9,-,N/A,,Clear,180,2013-11-16 09:35:00
3:55 AM,39.2,37.4,93,29.39,10.0,South,9.2,-,N/A,,Clear,180,2013-11-16 09:55:00
4:15 AM,39.2,37.4,93,29.38,10.0,South,8.1,-,N/A,,Clear,170,2013-11-16 10:15:00
4:35 AM,37.4,37.4,100,29.37,10.0,SSE,6.9,-,N/A,,Clear,160,2013-11-16 10:35:00
4:55 AM,37.4,35.6,93,29.38,10.0,South,8.1,-,N/A,,Clear,170,2013-11-16 10:55:00
5:14 AM,37.4,37.4,100,29.39,10.0,South,6.9,-,N/A,,Clear,180,2013-11-16 11:14:00
5:35 AM,35.6,35.6,100,29.38,10.0,SSE,8.1,-,N/A,,Clear,160,2013-11-16 11:35:00
5:55 AM,35.6,35.6,100,29.38,10.0,South,8.1,-,N/A,,Clear,170,2013-11-16 11:55:00
6:14 AM,35.6,35.6,100,29.37,10.0,South,6.9,-,N/A,,Clear,170,2013-11-16 12:14:00
6:35 AM,35.6,35.6,100,29.37,10.0,South,6.9,-,N/A,,Clear,170,2013-11-16 12:35:00
6:55 AM,35.6,35.6,100,29.38,10.0,South,8.1,-,N/A,,Clear,180,2013-11-16 12:55:00
7:14 AM,35.6,35.6,100,29.37,10.0,South,5.8,-,N/A,,Mostly Cloudy,170,2013-11-16 13:14:00
7:35 AM,35.6,35.6,100,29.37,10.0,SSE,5.8,-,N/A,,Overcast,160,2013-11-16 13:35:00
7:55 AM,35.6,35.6,100,29.37,10.0,SSE,4.6,-,N/A,,Overcast,150,2013-11-16 13:55:00
8:14 AM,35.6,35.6,100,29.37,7.0,SSE,4.6,-,N/A,,Overcast,160,2013-11-16 14:14:00
8:35 AM,35.6,35.6,100,29.36,7.0,SSE,5.8,-,N/A,,Overcast,160,2013-11-16 14:35:00
8:55 AM,37.4,37.4,100,29.37,7.0,South,4.6,-,N/A,,Mostly Cloudy,170,2013-11-16 14:55:00
9:14 AM,37.4,37.4,100,29.34,10.0,ESE,5.8,-,N/A,,Scattered Clouds,110,2013-11-16 15:14:00
9:35 AM,37.4,37.4,100,29.35,7.0,SSE,10.4,-,N/A,,Scattered Clouds,160,2013-11-16 15:35:00
9:54 AM,39.2,39.2,100,29.36,10.0,South,10.4,-,N/A,,Scattered Clouds,180,2013-11-16 15:54:00
10:15 AM,42.8,41.0,93,29.36,10.0,South,16.1,19.6,N/A,,Clear,170,2013-11-16 16:15:00
10:35 AM,42.8,39.2,87,29.36,10.0,South,13.8,18.4,N/A,,Scattered Clouds,170,2013-11-16 16:35:00
10:54 AM,42.8,41.0,93,29.36,10.0,South,9.2,-,N/A,,Clear,180,2013-11-16 16:54:00
11:15 AM,42.8,41.0,93,29.35,10.0,SSE,9.2,-,N/A,,Scattered Clouds,160,2013-11-16 17:15:00
11:35 AM,42.8,41.0,93,29.33,10.0,SSE,3.5,-,N/A,,Scattered Clouds,150,2013-11-16 17:35:00
11:54 AM,42.8,41.0,93,29.32,10.0,Calm,Calm,-,N/A,,Scattered Clouds,0,2013-11-16 17:54:00
12:15 PM,42.8,41.0,93,29.30,10.0,ENE,4.6,-,N/A,,Scattered Clouds,70,2013-11-16 18:15:00
12:35 PM,42.8,42.8,100,29.30,10.0,Calm,Calm,-,N/A,,Scattered Clouds,0,2013-11-16 18:35:00
12:54 PM,44.6,42.8,93,29.29,10.0,Calm,Calm,-,N/A,,Clear,0,2013-11-16 18:54:00
1:15 PM,44.6,42.8,93,29.28,10.0,North,5.8,-,N/A,,Clear,10,2013-11-16 19:15:00
1:35 PM,44.6,42.8,93,29.28,10.0,North,4.6,-,N/A,,Scattered Clouds,360,2013-11-16 19:35:00
1:54 PM,44.6,42.8,93,29.28,10.0,North,6.9,-,N/A,,Scattered Clouds,350,2013-11-16 19:54:00
2:15 PM,44.6,42.8,93,29.29,10.0,NNE,6.9,-,N/A,,Mostly Cloudy,20,2013-11-16 20:15:00
2:35 PM,44.6,42.8,93,29.28,10.0,NE,5.8,-,N/A,,Overcast,50,2013-11-16 20:35:00
2:54 PM,46.4,42.8,87,29.27,10.0,East,8.1,-,N/A,,Overcast,90,2013-11-16 20:54:00
3:15 PM,44.6,42.8,93,29.28,7.0,SSE,8.1,-,N/A,,Overcast,150,2013-11-16 21:15:00
3:35 PM,42.8,42.8,100,29.28,5.0,SE,8.1,-,N/A,,Overcast,130,2013-11-16 21:35:00
3:54 PM,42.8,42.8,100,29.29,4.0,SE,5.8,-,N/A,,Overcast,130,2013-11-16 21:54:00
4:15 PM,42.8,42.8,100,29.29,4.0,SE,4.6,-,N/A,,Overcast,140,2013-11-16 22:15:00
4:35 PM,42.8,42.8,100,29.28,5.0,SE,3.5,-,N/A,,Overcast,130,2013-11-16 22:35:00
4:54 PM,42.8,42.8,100,29.27,4.0,East,4.6,-,N/A,,Overcast,90,2013-11-16 22:54:00
5:15 PM,42.8,42.8,100,29.28,5.0,NE,4.6,-,N/A,,Overcast,50,2013-11-16 23:15:00
5:35 PM,42.8,42.8,100,29.28,5.0,NNE,4.6,-,N/A,Rain,Rain,30,2013-11-16 23:35:00
5:55 PM,42.8,42.8,100,29.29,4.0,NNE,4.6,-,N/A,Rain,Light Rain,30,2013-11-16 23:55:00
6:15 PM,42.8,42.8,100,29.28,4.0,NNE,6.9,-,0.01,Rain,Light Rain,30,2013-11-17 00:15:00
6:34 PM,42.8,42.8,100,29.28,3.0,NNE,5.8,-,0.02,Rain,Light Rain,30,2013-11-17 00:34:00
6:55 PM,42.8,42.8,100,29.28,3.0,NNE,6.9,-,0.02,Rain,Light Rain,30,2013-11-17 00:55:00
7:15 PM,42.8,42.8,100,29.29,3.0,NNE,6.9,-,0.01,,Light Drizzle,30,2013-11-17 01:15:00
7:34 PM,42.8,42.8,100,29.29,2.5,North,6.9,-,0.01,,Light Drizzle,10,2013-11-17 01:34:00
7:55 PM,41.0,41.0,100,29.28,2.5,NNE,6.9,-,0.01,,Overcast,20,2013-11-17 01:55:00
8:15 PM,41.0,41.0,100,29.28,2.0,North,6.9,-,N/A,,Overcast,10,2013-11-17 02:15:00
8:35 PM,41.0,41.0,100,29.28,2.5,North,8.1,-,N/A,,Overcast,360,2013-11-17 02:35:00
8:55 PM,41.0,41.0,100,29.29,2.5,North,4.6,-,N/A,,Overcast,350,2013-11-17 02:55:00
9:15 PM,41.0,41.0,100,29.29,3.0,NNW,3.5,-,N/A,Rain,Light Rain,330,2013-11-17 03:15:00
9:35 PM,41.0,41.0,100,29.30,3.0,NNW,5.8,-,N/A,,Drizzle,340,2013-11-17 03:35:00
9:55 PM,39.2,39.2,100,29.30,3.0,NNW,9.2,-,N/A,,Overcast,330,2013-11-17 03:55:00
10:15 PM,39.2,39.2,100,29.30,3.0,NNW,10.4,-,N/A,,Light Drizzle,330,2013-11-17 04:15:00
10:35 PM,39.2,39.2,100,29.31,3.0,NNW,10.4,-,N/A,Rain,Rain,330,2013-11-17 04:35:00
10:55 PM,39.2,39.2,100,29.31,2.5,NNW,13.8,-,N/A,,Light Drizzle,340,2013-11-17 04:55:00
11:14 PM,39.2,39.2,100,29.32,5.0,NNW,15.0,-,N/A,,Drizzle,340,2013-11-17 05:14:00
11:35 PM,39.2,39.2,100,29.32,7.0,NNW,12.7,-,0.01,Rain,Light Rain,340,2013-11-17 05:35:00
11:55 PM,39.2,39.2,100,29.32,7.0,NNW,13.8,-,0.03,Rain,Light Rain,340,2013-11-17 05:55:00